Tracking 18843 objects as of 20-November-2017
HD Live streaming from Space Station
objects crossing your sky now

COSMOS 203

Track COSMOS 203 now!
10-day predictions
COSMOS 203 is classified as:


NORAD ID: 3129
Int'l Code: 1968-011A
Perigee: 1,188.9 km
Apogee: 1,208.4 km
Inclination: 74.1 °
Period: 109.2 minutes
Semi major axis: 7569 km
RCS: 3.3183 m2 (large)
Launch date: February 20, 1968
Source: Commonwealth of Independent States (former USSR) (CIS)
Launch site: PLESETSK MISSILE AND SPACE COMPLEX (PKMTR)
aabbcc
Your satellite tracking list
Your tracking list is empty




NASA's NSSDC Master Catalog

Two Line Element Set (TLE):
1  3129U 68011A   17323.94062955 -.00000235 +00000-0 -55175-3 0  9995
2  3129 074.0501 117.6208 0012875 230.2538 215.2134 13.18213542393356
Source of the keplerian elements: AFSPC